Weather History for Bellefontaine, OH

Change the Weather History Date:

Tuesday, December 24, 2013

  Actual Average (KDAY) Record (KDAY)
Temperature  
Mean Temperature 16 °F 29 °F  
Max Temperature 23 °F 36 °F 66 °F (1964)
Min Temperature 10 °F 22 °F -15 °F (1983)
Degree Days  
Heating Degree Days 48 36  
Month to date heating degree days 791  
Since 1 July heating degree days 1902  
Cooling Degree Days 0 0  
Month to date cooling degree days 0  
Year to date cooling degree days 891  
Moisture  
Dew Point 10 °F    
Average Humidity 81    
Maximum Humidity 93    
Minimum Humidity 73    
Precipitation  
Precipitation 0.00 in 0.11 in 1.77 in (1945)
Month to date precipitation 2.41  
Year to date precipitation 40.34  
Snow  
Snow 0.00 in 0.20 in 1.90 in (1960)
Month to date snowfall 3.1  
Since 1 July snowfall 4.1  
Snow Depth -    
Sea Level Pressure  
Sea Level Pressure 30.40 in    
Wind  
Wind Speed 10 mph (West)    
Max Wind Speed 15 mph    
Max Gust Speed 23 mph    
Visibility 9 miles    
Events      
T = Trace of Precipitation, MM = Missing Value Source: NWS Daily Summary

Daily Weather History Graph

Daily Weather History Graph

Search for Another Location

Airport:

Trip Planner

Search our weather history database for the weather conditions in past years. The results will help you decide how hot, cold, wet, or windy it might be!

Date:

Astronomy

Dec. 24, 2013 Rise Set
Actual Time 7:56 AM EST 5:13 PM EST
Civil Twilight 7:25 AM EST 5:44 PM EST
Nautical Twilight 6:51 AM EST 6:19 PM EST
Astronomical Twilight 6:17 AM EST 6:52 PM EST
Moon No Moon Rise 11:48 AM EST
Length of Visible Light 10h 19m
Length of Day
9h 17m
Waning Gibbous, 59% of the Moon is Illuminated
Dec 24
Waning Gibbous
Dec 25
Last Quarter
Jan 1
New
Jan 7
First Quarter
Jan 15
Full

Hourly Weather History & Observations

Time (EST) Temp. Windchill Dew Point Humidity Pressure Visibility Wind Dir Wind Speed Gust Speed Precip Events Conditions
12:15 AM 23.0 °F 12.4 °F 19.4 °F 86% 30.29 in 3.0 mi WNW 10.4 mph - 0.00 in   Overcast
12:35 AM 23.0 °F 12.4 °F 19.4 °F 86% 30.29 in 5.0 mi WNW 10.4 mph - 0.00 in   Overcast
12:55 AM 21.2 °F 10.1 °F 19.4 °F 93% 30.29 in 5.0 mi West 10.4 mph 16.1 mph 0.00 in   Overcast
1:15 AM 21.2 °F 11.7 °F 17.6 °F 86% 30.29 in 5.0 mi West 8.1 mph - 0.00 in   Overcast
1:35 AM 21.2 °F 9.5 °F 17.6 °F 86% 30.29 in 3.0 mi WNW 11.5 mph - 0.00 in   Overcast
1:55 AM 19.4 °F 9.5 °F 17.6 °F 93% 30.29 in 3.0 mi WNW 8.1 mph - 0.00 in   Overcast
2:15 AM 19.4 °F 8.6 °F 17.6 °F 93% 30.30 in 3.0 mi WNW 9.2 mph - 0.00 in   Overcast
2:35 AM 19.4 °F 7.9 °F 15.8 °F 86% 30.30 in 5.0 mi West 10.4 mph 18.4 mph 0.00 in   Overcast
2:55 AM 19.4 °F 6.0 °F 14.0 °F 80% 30.31 in 10.0 mi WNW 13.8 mph - 0.00 in   Overcast
3:15 AM 17.6 °F 3.7 °F 12.2 °F 79% 30.32 in 10.0 mi WNW 13.8 mph - 0.00 in   Overcast
3:35 AM 15.8 °F 2.7 °F 10.4 °F 79% 30.32 in 10.0 mi WNW 11.5 mph 16.1 mph 0.00 in   Mostly Cloudy
3:55 AM 14.0 °F -0.8 °F 8.6 °F 79% 30.32 in 10.0 mi West 13.8 mph - 0.00 in   Partly Cloudy
4:15 AM 14.0 °F 1.2 °F 6.8 °F 73% 30.32 in 10.0 mi West 10.4 mph - 0.00 in   Clear
4:35 AM 12.2 °F -0.2 °F 6.8 °F 79% 30.32 in 10.0 mi West 9.2 mph - 0.00 in   Clear
4:55 AM 12.2 °F -1.8 °F 8.6 °F 85% 30.32 in 10.0 mi West 11.5 mph - 0.00 in   Partly Cloudy
5:15 AM 12.2 °F -3.7 °F 5.0 °F 73% 30.33 in 10.0 mi WNW 15.0 mph 23.0 mph 0.00 in   Clear
5:35 AM 10.4 °F -6.0 °F 5.0 °F 79% 30.33 in 10.0 mi West 15.0 mph 18.4 mph 0.00 in   Mostly Cloudy
5:55 AM 10.4 °F -4.8 °F 5.0 °F 79% 30.34 in 10.0 mi WNW 12.7 mph 20.7 mph 0.00 in   Partly Cloudy
6:15 AM 10.4 °F -5.4 °F 5.0 °F 79% 30.34 in 10.0 mi West 13.8 mph - 0.00 in   Clear
6:35 AM 10.4 °F -5.4 °F 5.0 °F 79% 30.35 in 10.0 mi West 13.8 mph - 0.00 in   Scattered Clouds
6:55 AM 10.4 °F -4.8 °F 6.8 °F 85% 30.36 in 10.0 mi WNW 12.7 mph 18.4 mph 0.00 in   Overcast
7:15 AM 10.4 °F -4.1 °F 6.8 °F 85% 30.37 in 10.0 mi WNW 11.5 mph - 0.00 in   Overcast
7:35 AM 12.2 °F -1.8 °F 6.8 °F 79% 30.37 in 5.0 mi WNW 11.5 mph - 0.00 in   Overcast
7:55 AM 10.4 °F -5.4 °F 6.8 °F 85% 30.38 in 8.0 mi WNW 13.8 mph 20.7 mph 0.00 in   Overcast
8:15 AM 10.4 °F -4.8 °F 6.8 °F 85% 30.39 in 10.0 mi WNW 12.7 mph - 0.00 in   Overcast
8:35 AM 10.4 °F -4.8 °F 6.8 °F 85% 30.40 in 8.0 mi WNW 12.7 mph 18.4 mph 0.00 in   Overcast
8:55 AM 12.2 °F -1.8 °F 5.0 °F 73% 30.40 in 5.0 mi WNW 11.5 mph - 0.00 in   Overcast
9:15 AM 10.4 °F -2.4 °F 5.0 °F 79% 30.41 in 4.0 mi WNW 9.2 mph 20.7 mph 0.00 in   Overcast
9:35 AM 12.2 °F -0.2 °F 5.0 °F 73% 30.42 in 8.0 mi West 9.2 mph - 0.00 in   Mostly Cloudy
9:55 AM 12.2 °F -0.2 °F 5.0 °F 73% 30.43 in 8.0 mi West 9.2 mph - 0.00 in   Overcast
10:15 AM 12.2 °F -0.2 °F 5.0 °F 73% 30.44 in 10.0 mi West 9.2 mph - 0.00 in   Mostly Cloudy
10:35 AM 12.2 °F 0.7 °F 6.8 °F 79% 30.45 in 10.0 mi West 8.1 mph - 0.00 in   Mostly Cloudy
10:55 AM 12.2 °F 1.7 °F 6.8 °F 79% 30.45 in 10.0 mi West 6.9 mph - 0.00 in   Mostly Cloudy
11:15 AM 12.2 °F -0.2 °F 6.8 °F 79% 30.45 in 10.0 mi West 9.2 mph - 0.00 in   Scattered Clouds
11:35 AM 12.2 °F 0.7 °F 8.6 °F 85% 30.45 in 10.0 mi West 8.1 mph - 0.00 in   Mostly Cloudy
11:55 AM 12.2 °F -0.2 °F 8.6 °F 85% 30.46 in 10.0 mi West 9.2 mph - 0.00 in   Overcast
12:15 PM 12.2 °F 0.7 °F 8.6 °F 85% 30.45 in 9.0 mi WNW 8.1 mph - 0.00 in   Overcast
12:35 PM 14.0 °F 2.9 °F 8.6 °F 79% 30.45 in 10.0 mi West 8.1 mph - 0.00 in   Mostly Cloudy
12:55 PM 14.0 °F 2.0 °F 8.6 °F 79% 30.45 in 8.0 mi West 9.2 mph - 0.00 in   Overcast
1:15 PM 14.0 °F 2.0 °F 10.4 °F 86% 30.45 in 9.0 mi West 9.2 mph - 0.00 in   Overcast
1:35 PM 14.0 °F 2.0 °F 10.4 °F 86% 30.45 in 10.0 mi West 9.2 mph - 0.00 in   Overcast
1:55 PM 15.8 °F 4.2 °F 10.4 °F 79% 30.44 in 10.0 mi WNW 9.2 mph - 0.00 in   Mostly Cloudy
2:15 PM 15.8 °F 3.4 °F 10.4 °F 79% 30.45 in 10.0 mi West 10.4 mph - 0.00 in   Overcast
2:35 PM 15.8 °F 4.2 °F 10.4 °F 79% 30.45 in 10.0 mi West 9.2 mph - 0.00 in   Overcast
2:55 PM 15.8 °F 6.1 °F 10.4 °F 79% 30.45 in 10.0 mi West 6.9 mph - 0.00 in   Mostly Cloudy
3:15 PM 17.6 °F 8.2 °F 10.4 °F 73% 30.46 in 10.0 mi WSW 6.9 mph - 0.00 in   Scattered Clouds
3:35 PM 17.6 °F 7.3 °F 10.4 °F 73% 30.46 in 10.0 mi West 8.1 mph - 0.00 in   Partly Cloudy
3:55 PM 17.6 °F 8.2 °F 12.2 °F 79% 30.46 in 10.0 mi West 6.9 mph - 0.00 in   Scattered Clouds
4:15 PM 17.6 °F 7.3 °F 10.4 °F 73% 30.47 in 10.0 mi WSW 8.1 mph - 0.00 in   Partly Cloudy
4:35 PM 17.6 °F 8.2 °F 10.4 °F 73% 30.47 in 10.0 mi WSW 6.9 mph - 0.00 in   Clear
4:55 PM 17.6 °F 9.3 °F 10.4 °F 73% 30.47 in 10.0 mi WSW 5.8 mph - 0.00 in   Clear
5:15 PM 15.8 °F 8.6 °F 10.4 °F 79% 30.47 in 10.0 mi West 4.6 mph - 0.00 in   Clear
5:35 PM 15.8 °F - 10.4 °F 79% 30.48 in 10.0 mi Calm Calm - 0.00 in   Clear
5:55 PM 14.0 °F - 10.4 °F 86% 30.49 in 10.0 mi Calm Calm - 0.00 in   Clear
6:15 PM 14.0 °F - 10.4 °F 86% 30.49 in 10.0 mi Calm Calm - 0.00 in   Clear
6:35 PM 14.0 °F - 10.4 °F 86% 30.48 in 10.0 mi Calm Calm - 0.00 in   Clear
6:55 PM 12.2 °F - 10.4 °F 92% 30.48 in 10.0 mi Calm Calm - 0.00 in   Clear
7:15 PM 14.0 °F - 10.4 °F 86% 30.49 in 10.0 mi Calm Calm - 0.00 in   Clear
7:35 PM 14.0 °F - 10.4 °F 86% 30.49 in 10.0 mi Calm Calm - 0.00 in   Clear
7:50 PM 12.2 °F - 10.4 °F 92% 30.48 in 10.0 mi Calm Calm - 0.00 in   Clear